Location: Peach Mountain Observatory
(42.3967°N, 83.9367°W)
Time: 08:39:45
(UTC-05:00)

S-56A Canister/Altair - Pass Details

Date: 24 January 2020
Orbit: 633 x 2500 km, 38.9° (Epoch: 24 February)

Event Time Altitude Azimuth Distance (km) Brightness Sun altitude
Rises 20:00:01 0° 223° (SW) 4,356 12.0 -25.9°
Reaches altitude 10° 20:03:49 10° 213° (SSW) 3,059 11.0 -26.6°
Enters shadow 20:09:02 27° 168° (SSE) 1,701 9.1 -27.6°
Maximum altitude 20:09:38 28° 158° (SSE) 1,646 - -27.7°
Drops below altitude 10° 20:14:04 10° 100° (E) 2,284 - -28.5°
Sets 20:16:29 0° 87° (E) 3,077 - -29.0°
